ASTROCAST-0104 (47519 NORAD) Tracking and Keplerian Element Data
This shows tracking and keplerian element data for the satellite.
Feedback or suggestion? Click here.
Element | Value |
Catalog | 47519 |
Name | ASTROCAST-0104 |
Epoch Orbit | 1168 |
Epoch Day | 99.92486271 |
Epoch Year | 2021 |
RAAN | 162.2518 |
Inclination | 97.4975 |
Eccentricity | 0.0009048 |
Argument of Perigee | 338.5199 |
Mean Anonmoly | 21.5651 |
Mean Motion | 15.11815443 |
Decay Rate | 8.63E-06 |
L1 | 1 47519U 21006DK 21099.92486271 .00000863 00000-0 54232-4 0 9992 |
L2 | 2 47519 97.4975 162.2518 0009048 338.5199 21.5651 15.11815443 11682 |
Live tracking and technical data element details for ASTROCAST-0104 (NORAD 47519). ASTROCAST-0104 can be tracked NOW for your location showing map with azimuth and elevation plus other details from your city location.
Track the satellite on the map from your city or location and see movement details for azimuth, elevation, latitude, longitude, range, height, and movement on the map or in text.
IsCatalogInMostPopularTable: catalog: 47519, numindb: 12
Update: records affected: 1
GetName: 47519 ASTROCAST-0104
Hit Count: updated at: Sat, 10 Apr 2021 19:00:19 GMT